Location: Bessat
(45.8735°N, 1.9924°E)
Time: 23:14:48
(UTC+00:00)

Cosmos 1125 Rocket - Pass Details

Date: 11 May 2021
Orbit: 758 x 779 km, 74.0° (Epoch: 24 June)

Event Time Altitude Azimuth Distance (km) Brightness Sun altitude
Exits shadow 23:26:52 42° 92° (E) 1,083 4.1 -25.8°
Drops below altitude 10° 23:31:24 10° 34° (NE) 2,302 6.6 -25.9°
Sets 23:33:52 0° 28° (NNE) 3,230 7.6 -25.9°
